Weather History for Niagara Falls, NY

Change the Weather History Date:

Friday, April 5, 2013

  Actual Average Record
Temperature  
Mean Temperature 34 °F -  
Max Temperature 43 °F 47 °F 69 °F (1997)
Min Temperature 28 °F 30 °F 21 °F (2004)
Degree Days  
Heating Degree Days 30    
Moisture  
Dew Point 21 °F    
Average Humidity 56    
Maximum Humidity 75    
Minimum Humidity 41    
Precipitation  
Precipitation 0.00 in - - ()
Sea Level Pressure  
Sea Level Pressure 30.04 in    
Wind  
Wind Speed 9 mph (NW)    
Max Wind Speed 18 mph    
Max Gust Speed 25 mph    
Visibility 10 miles    
Events      
Averages and records for this station are not official NWS values.
T = Trace of Precipitation, MM = Missing Value Source: NWS Daily Summary

Daily Weather History Graph

Daily Weather History Graph

Search for Another Location

Airport:

Trip Planner

Search our weather history database for the weather conditions in past years. The results will help you decide how hot, cold, wet, or windy it might be!

Date:

Astronomy

Apr. 05, 2013 Rise Set
Actual Time 6:50 AM EDT 7:47 PM EDT
Civil Twilight 6:21 AM EDT 8:16 PM EDT
Nautical Twilight 5:47 AM EDT 8:50 PM EDT
Astronomical Twilight 5:11 AM EDT 9:26 PM EDT
Moon 4:03 AM EDT (4/5) 3:02 PM EDT (4/5)
Length of Visible Light 13h 54m
Length of Day
12h 56m
Waning Crescent, 24% of the Moon is Illuminated
Apr 5
Waning Crescent
Apr 10
New
Apr 18
First Quarter
Apr 25
Full
May 2
Last Quarter

Hourly Weather History & Observations

Time (EDT) Temp. Windchill Dew Point Humidity Pressure Visibility Wind Dir Wind Speed Gust Speed Precip Events Conditions
12:53 AM 32.0 °F 23.0 °F 19.9 °F 61% 29.93 in 10.0 mi SSW 11.5 mph - N/A   Scattered Clouds
1:53 AM 32.0 °F 25.6 °F 19.0 °F 59% 29.92 in 10.0 mi WSW 6.9 mph - N/A   Scattered Clouds
2:53 AM 33.1 °F - 21.0 °F 61% 29.93 in 10.0 mi Calm Calm - N/A   Mostly Cloudy
3:53 AM 34.0 °F - 23.0 °F 64% 29.92 in 10.0 mi Calm Calm - N/A   Overcast
4:53 AM 35.1 °F - 21.9 °F 59% 29.94 in 10.0 mi Calm Calm - N/A   Overcast
5:53 AM 32.0 °F 28.7 °F 23.0 °F 69% 29.96 in 10.0 mi WSW 3.5 mph - N/A   Overcast
6:53 AM 30.0 °F 25.2 °F 21.9 °F 72% 29.98 in 10.0 mi WNW 4.6 mph - N/A   Clear
7:04 AM 28.4 °F 23.3 °F 21.2 °F 74% 29.94 in 10.0 mi NW 4.6 mph - N/A   Scattered Clouds
7:53 AM 33.1 °F 28.7 °F 26.1 °F 75% 30.00 in 10.0 mi West 4.6 mph - N/A   Clear
8:53 AM 37.9 °F 30.5 °F 24.1 °F 57% 30.01 in 10.0 mi NW 11.5 mph - N/A   Partly Cloudy
9:53 AM 39.0 °F 31.0 °F 25.0 °F 57% 30.02 in 10.0 mi WNW 13.8 mph - N/A   Partly Cloudy
10:53 AM 39.0 °F 32.8 °F 25.0 °F 57% 30.04 in 10.0 mi NW 9.2 mph - N/A   Scattered Clouds
11:50 AM 41.0 °F 33.5 °F 26.6 °F 57% 30.01 in 10.0 mi NNW 13.8 mph - N/A   Mostly Cloudy
11:53 AM 41.0 °F 32.2 °F 26.1 °F 55% 30.05 in 10.0 mi NNW 18.4 mph - N/A   Mostly Cloudy
12:53 PM 41.0 °F 33.1 °F 25.0 °F 53% 30.06 in 10.0 mi NW 15.0 mph - N/A   Mostly Cloudy
1:53 PM 41.0 °F 33.1 °F 21.0 °F 45% 30.05 in 10.0 mi NNW 15.0 mph - N/A   Mostly Cloudy
2:53 PM 39.9 °F 31.4 °F 23.0 °F 51% 30.06 in 10.0 mi NW 16.1 mph 25.3 mph N/A   Mostly Cloudy
3:03 PM 39.2 °F 30.8 °F 24.8 °F 56% 30.02 in 10.0 mi NW 15.0 mph 23.0 mph 0.00 in   Unknown
3:48 PM 41.0 °F 32.2 °F 19.4 °F 42% 30.02 in 10.0 mi NW 18.4 mph 23.0 mph 0.00 in   Mostly Cloudy
3:53 PM 41.0 °F 32.5 °F 19.0 °F 41% 30.05 in 10.0 mi NW 17.3 mph 23.0 mph 0.00 in   Mostly Cloudy
4:53 PM 39.9 °F 31.8 °F 19.0 °F 43% 30.06 in 10.0 mi NNW 15.0 mph 23.0 mph N/A   Mostly Cloudy
5:53 PM 39.0 °F 30.3 °F 18.0 °F 43% 30.08 in 10.0 mi NNW 16.1 mph - N/A   Mostly Cloudy
6:53 PM 37.0 °F 29.8 °F 19.0 °F 48% 30.11 in 10.0 mi North 10.4 mph - N/A   Mostly Cloudy
7:53 PM 34.0 °F 26.0 °F 17.1 °F 50% 30.13 in 10.0 mi North 10.4 mph - N/A   Scattered Clouds
8:53 PM 32.0 °F 24.8 °F 17.1 °F 54% 30.16 in 10.0 mi NNW 8.1 mph - N/A   Partly Cloudy
9:53 PM 30.9 °F 24.3 °F 15.1 °F 52% 30.19 in 10.0 mi NNW 6.9 mph - N/A   Clear
10:53 PM 30.0 °F 22.4 °F 15.1 °F 54% 30.20 in 10.0 mi NNW 8.1 mph - N/A   Clear
11:53 PM 28.9 °F 21.9 °F 16.0 °F 58% 30.21 in 10.0 mi NNW 6.9 mph - N/A   Clear